FW3819 Weather Reports


Display with metric or nautical units.
time (UTC)temp
F
wind
direction
speed
MPH
gust
MPH
rain 1hr
in
rain 24hr
in
rain mn
in
humidity
%
barometer
mb
20260901075203 74 54 0.0 1.0 0.00 0.00 0.00 93 1018.0
20260901074702 74 54 0.0 1.0 0.00 0.00 0.00 93 1017.9
20260901074203 74 11 0.0 1.0 0.00 0.00 0.00 93 1017.9
20260901073703 74 54 0.0 1.0 0.00 0.00 0.00 93 1017.9
20260901073201 74 100 0.0 1.0 0.00 0.00 0.00 93 1018.0
20260901072956 74 234 0.0 1.0 0.00 0.00 0.00 93 1018.1
20260901072201 74 234 0.0 1.0 0.00 0.00 0.00 93 1018.2
20260901071703 74 11 0.0 1.0 0.00 0.00 0.00 93 1018.2
20260901071202 74 82 0.0 1.0 0.00 0.00 0.00 93 1018.3
20260901070702 74 82 0.0 1.0 0.00 0.00 0.00 93 1018.2
20260901070203 74 82 0.0 1.0 0.00 0.00 0.00 93 1018.2
20260901065702 74 82 0.0 1.0 0.00 0.00 0.00 93 1018.3
20260901065201 74 54 0.0 1.0 0.00 0.00 0.00 93 1018.3
20260901064701 74 11 0.0 1.0 0.00 0.00 0.00 93 1018.5
20260901064203 74 100 0.0 1.0 0.00 0.00 0.00 93 1018.4
20260901063755 74 279 0.0 1.0 0.00 0.00 0.00 92 1018.7
20260901063736 74 54 0.0 1.0 0.00 0.00 0.00 92 1018.6
20260901062928 74 54 0.0 1.0 0.00 0.00 0.00 92 1018.6
20260901062201 74 143 0.0 1.0 0.00 0.00 0.00 92 1018.6
20260901061702 74 11 0.0 1.0 0.00 0.00 0.00 92 1018.7
20260901061204 74 11 0.0 0.0 0.00 0.00 0.00 92 1018.7
20260901060702 74 54 0.0 0.0 0.00 0.00 0.00 92 1018.7
20260901060203 74 54 0.0 0.0 0.00 0.00 0.00 92 1018.6
20260901055757 74 54 0.0 1.0 0.00 0.00 0.00 92 1018.7
20260901055742 74 54 0.0 0.0 0.00 0.00 0.00 92 1018.6
20260901055040 74 54 0.0 0.0 0.00 0.00 0.00 92 1018.9
20260901055033 74 100 0.0 1.0 0.00 0.00 0.00 92 1018.7
20260901053702 74 54 0.0 0.0 0.00 0.00 0.00 92 1019.0
20260901053202 74 234 0.0 1.0 0.00 0.00 0.00 92 1019.0
20260901052701 74 11 0.0 1.0 0.00 0.00 0.00 92 1019.0
20260901052201 74 187 0.0 1.0 0.00 0.00 0.00 92 1019.1
20260901051702 74 11 0.0 0.0 0.00 0.00 0.00 92 1019.0
20260901051201 74 100 0.0 1.0 0.00 0.00 0.00 92 1019.2
20260901050701 74 54 0.0 1.0 0.00 0.00 0.00 92 1019.1
20260901050155 74 54 0.0 1.0 0.00 0.00 0.00 92 1019.2
20260901045649 74 100 0.0 1.0 0.00 0.00 0.00 92 1019.2
20260901045439 74 54 0.0 1.0 0.00 0.00 0.00 91 1019.3
20260901044637 74 117 0.0 1.0 0.00 0.00 0.00 91 1019.2
20260901044137 74 11 0.0 1.0 0.00 0.00 0.00 91 1019.4
20260901043635 75 234 0.0 1.0 0.00 0.00 0.00 91 1019.4
20260901043429 75 54 0.0 0.0 0.00 0.00 0.00 91 1019.4
20260901042637 75 54 0.0 0.0 0.00 0.00 0.00 91 1019.5
20260901042132 75 11 0.0 0.0 0.00 0.00 0.00 91 1019.6
20260901041630 75 54 0.0 1.0 0.00 0.00 0.00 91 1019.7
20260901041130 75 100 0.0 1.0 0.00 0.00 0.00 91 1019.7
20260901040629 75 54 0.0 1.0 0.00 0.00 0.00 91 1019.6
20260901040131 75 279 0.0 1.0 0.00 0.00 0.00 91 1019.6
20260901035632 75 234 0.0 1.0 0.00 0.00 0.00 91 1019.7
20260901035131 75 143 0.0 1.0 0.00 0.00 0.00 91 1019.8
20260901034631 75 54 0.0 1.0 0.00 0.00 0.00 91 1019.7
20260901034129 75 54 0.0 1.0 0.00 0.00 0.00 91 1019.8
20260901033630 75 100 0.0 1.0 0.00 0.00 0.00 91 1019.7
20260901033227 75 11 0.0 1.0 0.00 0.00 0.00 90 1019.6
20260901033209 75 100 0.0 1.0 0.00 0.00 0.00 90 1019.7
20260901032130 75 54 0.0 1.0 0.00 0.00 0.00 90 1019.7
20260901031630 76 54 0.0 1.0 0.00 0.00 0.00 90 1019.7
20260901031126 76 11 0.0 1.0 0.00 0.00 0.00 90 1019.8
20260901030700 76 234 0.0 1.0 0.00 0.00 0.00 90 1019.8
20260901030644 76 11 0.0 0.0 0.00 0.00 0.00 90 1019.8
20260901025658 76 11 0.0 3.0 0.00 0.00 0.00 90 1019.7
20260901025640 76 54 0.0 1.0 0.00 0.00 0.00 90 1019.7
20260901024604 76 54 0.0 3.0 0.00 0.00 0.00 90 1019.8
20260901024104 76 82 0.0 1.0 0.00 0.00 0.00 89 1019.8
20260901023605 76 100 0.0 1.0 0.00 0.00 0.00 89 1019.9
20260901023105 76 11 0.0 0.0 0.00 0.00 0.00 90 1019.9
20260901022604 76 11 0.0 1.0 0.00 0.00 0.00 89 1019.9
20260901022356 76 11 0.0 1.0 0.00 0.00 0.00 89 1019.8
20260901021602 77 279 0.0 1.0 0.00 0.00 0.00 89 1019.7
20260901021102 77 117 0.0 1.0 0.00 0.00 0.00 89 1019.7
20260901020602 77 143 0.0 1.0 0.00 0.00 0.00 89 1019.7
20260901020104 77 143 1.0 1.0 0.00 0.00 0.00 89 1019.5
20260901015601 77 100 1.0 1.0 0.00 0.00 0.00 89 1019.5
20260901015103 77 54 0.0 1.0 0.00 0.00 0.00 88 1019.7
20260901014902 78 54 0.0 1.0 0.00 0.00 0.00 88 1019.6
20260901014353 78 54 0.0 1.0 0.00 0.00 0.00 88 1019.6
20260901013602 78 110 0.0 1.0 0.00 0.00 0.00 88 1019.5
20260901013102 78 117 0.0 1.0 0.00 0.00 0.00 87 1019.4
20260901012601 78 117 0.0 1.0 0.00 0.00 0.00 87 1019.4
20260901012101 78 100 0.0 1.0 0.00 0.00 0.00 87 1019.5
20260901011601 78 54 0.0 1.0 0.00 0.00 0.00 87 1019.5
20260901011102 78 54 0.0 1.0 0.00 0.00 0.00 87 1019.5
20260901010657 79 54 0.0 0.0 0.00 0.00 0.00 87 1019.5
20260901010637 78 11 0.0 1.0 0.00 0.00 0.00 87 1019.5
20260901005602 79 11 0.0 3.0 0.00 0.00 0.00 86 1019.4
20260901005103 79 143 0.0 3.0 0.00 0.00 0.00 86 1019.4
20260901004601 79 69 0.0 1.0 0.00 0.00 0.00 86 1019.3
20260901004101 80 54 0.0 1.0 0.00 0.00 0.00 85 1019.2
20260901003602 80 100 0.0 1.0 0.00 0.00 0.00 85 1019.2
20260901003101 80 54 0.0 1.0 0.00 0.00 0.00 85 1019.2
20260901002952 80 82 0.0 1.0 0.00 0.01 0.00 84 1019.1
20260901002640 80 54 0.0 1.0 0.00 0.01 0.00 84 1019.1
20260901001602 81 82 0.0 1.0 0.00 0.01 0.00 83 1019.1
20260901001104 81 54 0.0 1.0 0.00 0.02 0.00 83 1019.1
20260901000603 81 100 0.0 1.0 0.00 0.04 0.00 82 1019.2
20260901000103 82 82 0.0 1.0 0.00 0.14 0.00 82 1019.3
20260831235854 82 116 0.0 1.0 0.00 0.37 0.00 81 1019.2
20260831235356 82 234 0.0 1.0 0.00 0.56 0.00 81 1019.1
20260831234604 82 100 0.0 1.0 0.00 0.80 0.00 81 1019.1
20260831234102 83 11 0.0 1.0 0.00 0.98 0.00 80 1019.1
20260831233602 83 54 0.0 1.0 0.00 1.09 0.00 80 1019.0
20260831233102 83 54 0.0 1.0 0.00 1.18 0.00 79 1019.0
20260831232603 83 100 0.0 1.0 0.00 1.22 0.00 80 1019.1
20260831232102 84 11 0.0 1.0 0.00 1.23 0.00 80 1019.2
20260831231854 84 234 0.0 1.0 0.00 1.23 0.00 79 1019.1
20260831231103 84 11 0.0 1.0 0.00 1.23 0.00 78 1019.1
20260831230604 84 234 0.0 1.0 0.00 1.23 0.00 78 1019.0
20260831230104 84 54 0.0 1.0 0.00 1.23 0.00 78 1019.1
20260831225603 84 54 0.0 1.0 0.00 1.23 0.00 78 1019.2
20260831225357 84 82 0.0 3.0 0.00 1.23 0.00 77 1019.3
20260831224603 85 100 1.0 3.0 0.00 1.23 0.00 77 1019.4
20260831224102 85 100 0.0 1.0 0.00 1.23 0.00 77 1019.5
20260831223600 85 100 0.0 3.0 0.00 1.23 0.00 77 1019.5
20260831223358 85 143 0.0 3.0 0.00 1.23 0.00 76 1019.6
20260831222602 85 143 0.0 3.0 0.00 1.23 0.00 75 1019.6
20260831222102 85 82 0.0 3.0 0.00 1.23 0.00 75 1019.7
20260831221603 85 188 1.0 3.0 0.00 1.23 0.00 75 1019.8
20260831221101 85 162 1.0 3.0 0.00 1.23 0.00 75 1019.8
20260831220603 85 143 1.0 3.0 0.00 1.23 0.00 74 1019.8
20260831215601 85 117 1.0 3.0 0.00 1.23 0.00 72 1019.7
20260831215400 85 178 1.0 3.0 0.00 1.23 0.00 72 1019.6
20260831214602 85 143 0.0 3.0 0.00 1.23 0.00 74 1019.6
20260831214402 85 117 1.0 3.0 0.00 1.23 0.00 74 1019.6
20260831213602 85 261 1.0 3.0 0.00 1.23 0.00 74 1019.8
20260831213104 85 234 1.0 3.0 0.00 1.23 0.00 75 1019.8
20260831212856 85 279 0.0 3.0 0.00 1.23 0.00 72 1019.6
20260831212102 85 279 1.0 3.0 0.00 1.23 0.00 72 1019.6
20260831211603 85 171 1.0 3.0 0.00 1.23 0.00 72 1019.7
20260831211103 85 178 1.0 4.0 0.00 1.23 0.00 71 1019.6
20260831210602 85 54 1.0 4.0 0.00 1.23 0.00 70 1019.6
20260831210104 85 23 1.0 4.0 0.00 1.23 0.00 70 1019.7
20260831205602 86 279 1.0 5.0 0.00 1.23 0.00 69 1019.7
20260831205102 86 279 1.0 7.0 0.00 1.23 0.00 68 1019.7
20260831204602 86 11 0.0 7.0 0.00 1.23 0.00 68 1019.7
20260831204101 86 188 0.0 3.0 0.00 1.23 0.00 67 1019.8
20260831203603 86 11 0.0 3.0 0.00 1.23 0.00 67 1019.8
20260831203332 86 11 1.0 4.0 0.00 1.23 0.00 70 1019.9
20260831203252 86 54 0.0 3.0 0.00 1.23 0.00 68 1019.6
20260831203026 86 100 0.0 3.0 0.00 1.23 0.00 68 1019.8
20260831202435 86 117 0.0 3.0 0.00 1.23 0.00 70 1019.8
20260831201048 86 11 1.0 5.0 0.00 1.23 0.00 69 1019.8
20260831200540 86 274 1.0 5.0 0.00 1.23 0.00 67 1019.9
20260831200037 86 54 1.0 5.0 0.00 1.23 0.00 68 1019.9
20260831195538 86 273 0.0 4.0 0.00 1.23 0.00 68 1019.7
20260831195038 86 11 0.0 4.0 0.00 1.23 0.00 69 1019.8
20260831194538 86 279 0.0 3.0 0.00 1.23 0.00 69 1019.9
20260831194333 86 100 0.0 1.0 0.00 1.23 0.00 69 1019.9
20260831193537 86 54 0.0 3.0 0.00 1.23 0.00 69 1019.8
20260831193039 86 11 1.0 3.0 0.00 1.23 0.00 69 1020.0
20260831192534 86 296 1.0 5.0 0.00 1.23 0.00 68 1020.0
20260831192034 86 296 1.0 5.0 0.00 1.23 0.00 68 1020.2
20260831191535 86 54 2.0 5.0 0.00 1.23 0.00 69 1020.3
20260831191030 87 268 1.0 5.0 0.00 1.23 0.00 67 1020.4
20260831190529 87 54 1.0 7.0 0.00 1.23 0.00 68 1020.3
20260831190327 87 158 2.0 7.0 0.00 1.23 0.00 68 1020.3
20260831185528 87 261 2.0 7.0 0.00 1.23 0.00 66 1020.4
20260831185029 87 265 1.0 4.0 0.00 1.23 0.00 67 1020.4
20260831184530 87 28 1.0 4.0 0.00 1.23 0.00 67 1020.5
20260831184031 87 289 1.0 4.0 0.00 1.23 0.00 67 1020.4
20260831183530 86 296 1.0 7.0 0.00 1.23 0.00 68 1020.3
20260831183029 85 234 1.0 7.0 0.00 1.23 0.00 67 1020.4
20260831182522 85 326 1.0 3.0 0.00 1.23 0.00 67 1020.4
20260831182017 86 0 1.0 3.0 0.00 1.23 0.00 66 1020.4
20260831181513 86 11 1.0 3.0 0.00 1.23 0.00 67 1020.4
20260831181308 87 21 1.0 4.0 0.00 1.23 0.00 67 1020.4
20260831180513 87 82 1.0 5.0 0.00 1.23 0.00 65 1020.3
20260831180013 87 143 1.0 5.0 0.00 1.23 0.00 68 1020.3
20260831175512 86 125 1.0 4.0 0.00 1.23 0.00 67 1020.3
20260831175306 86 143 1.0 4.0 0.00 1.23 0.00 69 1020.4
20260831174512 85 100 1.0 3.0 0.00 1.23 0.00 71 1020.5
20260831174011 86 117 1.0 4.0 0.00 1.23 0.00 69 1020.5
20260831173511 86 178 1.0 4.0 0.00 1.23 0.00 68 1020.5
20260831173010 86 160 1.0 4.0 0.00 1.23 0.00 67 1020.4
20260831172508 86 129 1.0 4.0 0.00 1.23 0.00 69 1020.4
20260831172008 85 188 1.0 4.0 0.00 1.23 0.00 69 1020.6
20260831171507 85 326 2.0 4.0 0.00 1.23 0.00 68 1020.6
20260831171007 85 203 2.0 4.0 0.00 1.23 0.00 69 1020.4
20260831170507 86 37 1.0 4.0 0.00 1.23 0.00 69 1020.6
20260831170309 85 113 1.0 4.0 0.00 1.23 0.00 69 1020.5
20260831165753 85 248 1.0 4.0 0.00 1.23 0.00 68 1020.6
20260831165002 85 158 1.0 4.0 0.00 1.23 0.00 71 1020.8
20260831164504 84 129 1.0 4.0 0.00 1.23 0.00 68 1020.9
20260831164004 84 279 1.0 3.0 0.00 1.23 0.00 71 1020.9
20260831163504 83 4 1.0 4.0 0.00 1.23 0.00 72 1021.0
20260831163004 83 54 1.0 4.0 0.00 1.23 0.00 73 1021.1
20260831162501 83 54 1.0 4.0 0.00 1.23 0.00 73 1021.1
20260831162001 82 100 1.0 4.0 0.00 1.23 0.00 74 1021.2
20260831161502 82 28 1.0 4.0 0.00 1.23 0.00 74 1021.3
20260831161001 82 82 1.0 3.0 0.00 1.23 0.00 76 1021.2
20260831160502 82 54 1.0 4.0 0.00 1.23 0.00 77 1021.3
20260831160002 81 54 1.0 4.0 0.00 1.23 0.00 76 1021.3
20260831155502 81 143 1.0 3.0 0.00 1.23 0.00 77 1021.1
20260831155001 80 67 1.0 3.0 0.00 1.23 0.00 82 1021.0
20260831154502 79 21 1.0 3.0 0.00 1.23 0.00 84 1020.9
20260831154001 78 37 1.0 3.0 0.00 1.23 0.00 89 1020.9
20260831153750 77 234 1.0 4.0 0.00 1.23 0.00 94 1020.9
20260831153002 77 82 1.0 4.0 0.00 1.23 0.00 96 1020.8
20260831152502 76 296 1.0 3.0 0.00 1.23 0.00 96 1020.7
20260831152003 76 326 1.0 3.0 0.00 1.23 0.00 96 1020.8
20260831151502 76 326 1.0 4.0 0.00 1.23 0.00 96 1020.8
20260831151003 76 54 1.0 4.0 0.00 1.23 0.00 96 1020.8
20260831150501 76 326 1.0 3.0 0.00 1.23 0.00 96 1020.7
20260831150003 76 41 1.0 3.0 0.00 1.23 0.00 96 1020.8
20260831145501 76 100 0.0 3.0 0.00 1.23 0.00 96 1020.9
20260831145003 76 125 0.0 3.0 0.00 1.23 0.00 96 1021.1
20260831144757 76 11 1.0 3.0 0.00 1.23 0.00 96 1021.2
20260831144002 75 54 1.0 3.0 0.00 1.23 0.00 96 1021.2
20260831143558 75 279 1.0 4.0 0.00 1.23 0.00 96 1021.1
20260831143537 75 268 1.0 4.0 0.00 1.23 0.00 96 1021.1
20260831142502 75 11 1.0 4.0 0.00 1.23 0.00 96 1021.0
20260831142002 75 279 1.0 3.0 0.00 1.23 0.00 96 1021.0
20260831141552 74 143 1.0 4.0 0.00 1.23 0.00 96 1020.9
20260831141534 75 353 1.0 3.0 0.00 1.23 0.00 96 1020.9
20260831140501 74 171 1.0 4.0 0.00 1.23 0.00 96 1020.9
20260831140001 74 116 1.0 3.0 0.00 1.23 0.00 96 1021.0
20260831135501 74 187 1.0 3.0 0.00 1.23 0.00 96 1021.1
20260831135002 74 261 1.0 3.0 0.00 1.23 0.00 96 1021.0
20260831134500 73 54 0.0 1.0 0.00 1.23 0.00 96 1021.0
20260831134300 73 260 0.0 1.0 0.00 1.23 0.00 96 1021.1
20260831133752 73 54 0.0 1.0 0.00 1.23 0.00 96 1021.1
20260831133001 73 54 1.0 3.0 0.00 1.23 0.00 96 1021.2
20260831132753 73 326 1.0 3.0 0.00 1.23 0.00 96 1021.2
20260831132001 73 82 0.0 3.0 0.00 1.23 0.00 96 1021.1
20260831131501 72 18 1.0 4.0 0.00 1.23 0.00 95 1021.2
20260831131001 72 326 1.0 4.0 0.00 1.23 0.00 96 1021.2
20260831130754 72 345 0.0 3.0 0.00 1.23 0.00 96 1021.2
20260831130001 72 286 0.0 3.0 0.00 1.23 0.00 96 1021.1
20260831125750 72 187 1.0 4.0 0.00 1.23 0.00 96 1021.0
20260831125004 71 11 1.0 4.0 0.00 1.23 0.00 95 1021.2
20260831124502 71 326 1.0 4.0 0.00 1.23 0.00 96 1021.2
20260831124001 71 143 1.0 3.0 0.00 1.23 0.00 95 1021.0
20260831123503 71 260 1.0 3.0 0.00 1.23 0.00 95 1021.1
20260831123253 71 260 1.0 3.0 0.00 1.23 0.00 95 1021.0
20260831122502 71 11 1.0 4.0 0.00 1.23 0.00 95 1021.0
20260831122002 71 305 1.0 4.0 0.00 1.23 0.00 95 1021.1
20260831121502 70 326 1.0 4.0 0.00 1.23 0.00 95 1021.0
20260831121001 70 289 1.0 3.0 0.00 1.23 0.00 95 1020.9
20260831120503 70 279 1.0 3.0 0.00 1.23 0.00 95 1020.8
20260831120253 70 188 0.0 1.0 0.00 1.23 0.00 95 1020.8
20260831115754 70 143 1.0 5.0 0.00 1.23 0.00 95 1020.8
20260831115000 70 143 1.0 5.0 0.00 1.23 0.00 95 1020.9
20260831114501 70 37 1.0 4.0 0.00 1.23 0.00 95 1021.0
20260831114302 70 279 1.0 3.0 0.00 1.23 0.00 95 1020.8
20260831113503 69 54 0.0 3.0 0.00 1.23 0.00 95 1020.6
20260831113002 70 326 0.0 3.0 0.00 1.23 0.00 95 1020.6
20260831112503 70 326 0.0 1.0 0.00 1.23 0.00 95 1020.3
20260831112001 69 234 0.0 1.0 0.00 1.23 0.00 95 1020.3
20260831111802 69 326 0.0 1.0 0.00 1.23 0.00 95 1020.3
20260831111001 69 11 0.0 3.0 0.00 1.23 0.00 95 1020.1
20260831110800 69 279 0.0 3.0 0.00 1.23 0.00 95 1020.2
20260831110003 69 279 0.0 3.0 0.00 1.23 0.00 95 1020.2
20260831105503 69 234 0.0 1.0 0.00 1.23 0.00 95 1020.2
20260831105002 69 11 0.0 1.0 0.00 1.23 0.00 95 1020.1
20260831104502 69 54 0.0 1.0 0.00 1.23 0.00 95 1020.2
20260831104001 69 100 0.0 1.0 0.00 1.23 0.00 95 1020.1
20260831103501 69 279 0.0 1.0 0.00 1.23 0.00 95 1019.9
20260831103002 69 11 0.0 1.0 0.00 1.23 0.00 95 1019.9
20260831102502 69 54 0.0 1.0 0.00 1.23 0.00 94 1019.8
20260831102004 69 28 1.0 4.0 0.00 1.23 0.00 94 1019.7
20260831101502 69 279 1.0 4.0 0.00 1.23 0.00 95 1019.8
20260831101002 69 260 0.0 3.0 0.00 1.23 0.00 94 1019.8
20260831100502 69 326 0.0 1.0 0.00 1.23 0.00 94 1019.7
20260831100004 69 11 0.0 1.0 0.00 1.23 0.00 94 1019.7
20260831095502 69 100 0.0 1.0 0.00 1.23 0.00 94 1019.7
20260831095003 69 11 0.0 1.0 0.00 1.23 0.00 94 1019.7
20260831094501 70 82 0.0 1.0 0.00 1.23 0.00 94 1019.6
20260831094003 70 11 0.0 1.0 0.00 1.23 0.00 94 1019.5
20260831093559 70 143 0.0 1.0 0.00 1.23 0.00 94 1019.4
20260831093540 70 279 0.0 1.0 0.00 1.23 0.00 95 1019.5
20260831092502 70 11 0.0 3.0 0.00 1.23 0.00 94 1019.5
20260831092001 70 125 0.0 3.0 0.00 1.23 0.00 94 1019.5
20260831091501 70 54 0.0 1.0 0.00 1.23 0.00 94 1019.5
20260831091001 70 11 0.0 1.0 0.00 1.23 0.00 94 1019.5
20260831090501 70 353 0.0 1.0 0.00 1.23 0.00 94 1019.6
20260831090259 70 11 0.0 1.0 0.00 1.23 0.00 94 1019.6
20260831085753 70 326 0.0 3.0 0.00 1.23 0.00 94 1019.6
20260831085003 70 11 1.0 3.0 0.00 1.23 0.00 94 1019.7
20260831084500 70 340 1.0 3.0 0.00 1.23 0.00 94 1019.6
20260831084001 70 143 0.0 3.0 0.00 1.23 0.00 94 1019.5
20260831083501 70 289 0.0 1.0 0.00 1.23 0.00 94 1019.6
20260831083002 70 234 0.0 1.0 0.00 1.23 0.00 94 1019.6
20260831082501 70 100 0.0 1.0 0.00 1.23 0.00 94 1019.4
20260831082005 70 143 0.0 1.0 0.00 1.23 0.00 94 1019.5
20260831081502 70 125 0.0 1.0 0.00 1.23 0.00 94 1019.5
20260831080955 70 11 0.0 3.0 0.00 1.23 0.00 94 1019.6
20260831080450 70 143 0.0 5.0 0.00 1.23 0.00 94 1019.6
20260831075943 70 326 1.0 5.0 0.00 1.23 0.00 94 1019.7
20260831075438 70 326 0.0 3.0 0.00 1.23 0.00 94 1019.6